Regional Weather Roundup
Issued by NWS

Home | Current Version | Previous Version | Graphics & Text | Print | Product List | Glossary On
Versions: 1 2 3 4 5 6 7 8 9 10 11 12 13 14 15 16 17 18 19 20 21 22 23 24 25 26 27 28 29 30 31 32 33 34 35 36 37 38 39 40 41 42 43 44 45 46 47 48 49 50
000
ASUS43 KDMX 241207
RWRIA

WEATHER ROUNDUP FOR IOWA
NATIONAL WEATHER SERVICE DES MOINES IA
700 AM CDT SUN MAY 24 2015

NOTE: "FAIR" INDICATES FEW OR NO CLOUDS BELOW 12,000 FEET WITH NO
SIGNIFICANT WEATHER AND/OR OBSTRUCTIONS TO VISIBILITY.

* - THESE STATIONS ARE NOT NWS STATIONS...THUS NOT UNDER NWS
QUALITY CONTROL.  THEY ALSO DO NOT REPORT WEATHER SUCH
AS PRECIPITATION OR FOG.

IAZ001>003-012>014-020>022-031>034-043>046-241300-
   NORTHWEST IOWA

CITY           SKY/WX    TMP DP  RH WIND       PRES   REMARKS
CARROLL *      CLOUDY    59  59 100 E15       29.94F FOG
CHEROKEE *     DRIZZLE   58  58 100 E9        29.96F
DENISON *      CLOUDY    59  59 100 E14G20    29.90F FOG
LE MARS *      CLOUDY    61  59  94 E12G17    29.94F
ORANGE CITY *  DRIZZLE   57  57 100 E9        29.95F
SHELDON *      CLOUDY    59 N/A N/A E15       29.95F FOG
SIOUX CITY     CLOUDY    61  57  87 E9        29.90F
6HR MIN TEMP:  60; 6HR MAX TEMP:  61; 6HR PCP:  0.18;

SPENCER        CLOUDY    59  57  93 E12       29.99R
6HR MIN TEMP:  59; 6HR MAX TEMP:  63; 6HR PCP:  0.14;

STORM LAKE *   CLOUDY    57  57 100 E16       29.96F FOG
$$

IAZ055>058-069>071-079>083-090>094-241300-
   SOUTHWEST IOWA

CITY           SKY/WX    TMP DP  RH WIND       PRES   REMARKS
ATLANTIC *     DRIZZLE   59  59 100 E9        29.91S
AUDUBON *      LGT RAIN  59  55  88 E9        29.94F
CLARINDA *     CLOUDY    61  61 100 SE6G13    29.90S
COUNCIL BLFS * CLOUDY    59  59 100 E10G21    29.89F
CRESTON *      LGT RAIN  61  61 100 SE16      29.91F
HARLAN  *      CLOUDY    59  59 100 E10       29.94S FOG
LAMONI         CLOUDY    63  59  87 SE10G26   29.93S
6HR MIN TEMP:  61; 6HR MAX TEMP:  63; 6HR PCP:  0.39;

RED OAK *      LGT RAIN  61  61 100 E8        29.89S VSB 1
SHENANDOAH *   CLOUDY    61  61 100 SE13      29.88S FOG
$$

IAZ047>049-059>061-072>074-084-241300-
   CENTRAL IOWA

CITY           SKY/WX    TMP DP  RH WIND       PRES   REMARKS
AMES           RAIN      59  57  93 E9        29.99F FOG
6HR MIN TEMP:  59; 6HR MAX TEMP:  65; 6HR PCP:  0.25;

ANKENY *       RAIN      59  59 100 E12       29.97F
CHARITON *     CLOUDY    61  59  94 SE14G23   29.96F
DES MOINES     LGT RAIN  61  58  90 E12       29.96F
6HR MIN TEMP:  60; 6HR MAX TEMP:  67; 6HR PCP:  0.59;

GRINNELL*      HVY RAIN  59  57  94 SE14      30.04R VSB 3/4
KNOXVILLE *    LGT RAIN  61  59  94 E12G17    29.97F
MARSHALLTOWN   LGT RAIN  58  57  97 E13       30.01F FOG
6HR MIN TEMP:  58; 6HR MAX TEMP:  67; 6HR PCP:  0.17;

PELLA *        RAIN      59  59 100 SE8       30.01F
PERRY *        LGT RAIN  58  58  97 E12       29.96F
$$

IAZ004>006-015-016-023>025-035-036-241300-
   NORTH CENTRAL IOWA

CITY           SKY/WX    TMP DP  RH WIND       PRES   REMARKS
ALGONA *       CLOUDY    59  59 100 E7        30.02S
CLARION *      CLOUDY    59  59 100 E7        30.02S
ESTHERVILLE    CLOUDY    57  56  96 SE12      30.01R
6HR MIN TEMP:  57; 6HR MAX TEMP:  61; 6HR PCP:  0.05;

FORT DODGE *   CLOUDY    57  55  94 NE9       30.01S
MASON CITY     CLOUDY    60  56  86 SE7       30.05F
6HR MIN TEMP:  59; 6HR MAX TEMP:  64; 6HR PCP:  0.05;

FOREST CITY *  CLOUDY    55  55 100 SE3       30.04R
IOWA FALLS *   RAIN      59  57  94 E12       30.04S
$$

IAZ007>011-017>019-026>030-037>042-050>054-066-241300-
   NORTHEAST IOWA

CITY           SKY/WX    TMP DP  RH WIND       PRES   REMARKS
CEDAR RAPIDS   LGT RAIN  58  57  97 E8        30.07R
6HR MIN TEMP:  58; 6HR MAX TEMP:  66; 6HR PCP:  0.09;

CHARLES CITY * PTSUNNY   59  59 100 E8        30.06S
CLINTON *      CLOUDY    59  54  82 E10       30.13F
DECORAH *      PTSUNNY   61  52  72 SE10G16   30.08S
DUBUQUE        LGT RAIN  60  54  80 SE8       30.11F
6HR MIN TEMP:  58; 6HR MAX TEMP:  63; 6HR PCP: TRACE;

MONTICELLO *   CLOUDY    59  57  94 SE8       30.10R
OELWEIN *      CLOUDY    59  55  88 SE10      30.08S HAZE
WATERLOO       LGT RAIN  59  56  89 SE13      30.06R FOG
6HR MIN TEMP:  59; 6HR MAX TEMP:  65; 6HR PCP:  0.09;

$$

IAZ064-065-067-068-078-241300-
   EAST CENTRAL IOWA

CITY           SKY/WX    TMP DP  RH WIND       PRES   REMARKS
DAVENPORT      LGT RAIN  60  54  80 SE10      30.12R
6HR MIN TEMP:  59; 6HR MAX TEMP:  68; 6HR PCP:  0.06;

IOWA CITY      LGT RAIN  60  56  86 E7        30.10R FOG
6HR MIN TEMP:  59; 6HR MAX TEMP:  66; 6HR PCP:  0.09;

MT. PLEASANT * DRIZZLE   58  58 100 E10       30.06F
MUSCATINE *    LGT RAIN  61  57  88 E7        30.10S
QUAD CITIES    RAIN      60  54  80 SE9       30.12R
6HR MIN TEMP:  60; 6HR MAX TEMP:  67; 6HR PCP:  0.07;

$$

IAZ062-063-075>077-085>089-095>099-241300-
   SOUTHEAST IOWA

CITY           SKY/WX    TMP DP  RH WIND       PRES   REMARKS
BURLINGTON     CLOUDY    60  58  92 E8        30.07F
6HR MIN TEMP:  60; 6HR MAX TEMP:  69; 6HR PCP:  0.11;

FAIRFIELD *    LGT RAIN  59  57  94 E14G20    30.04F
FORT MADISON * LGT RAIN  59  57  94 E9        30.07F
KEOKUK *       CLOUDY    61  59  94 E14       30.05S
OSKALOOSA *    HVY RAIN  59  58  96 E15       30.02F
CENTERVILLE *  LGT RAIN  59  59 100 E14       29.98F
OTTUMWA        RAIN      60  59  96 E14       30.01F FOG
6HR MIN TEMP:  59; 6HR MAX TEMP:  65; 6HR PCP:  0.80;

WASHINGTON *   LGT RAIN  59  59 100 SE10      30.09S
$$

ABBREVIATIONS USED IN REMARKS
   TC - TEMPERATURES IN CELSIUS
  WCI - WIND CHILL INDEX
   HX - HEAT INDEX
  VSB - VISIBILITY
$$



USA.gov is the U.S. government's official web portal to all federal, state and local government web resources and services.